TimeEDT,TemperatureF,Dew PointF,Humidity,Sea Level PressureIn,VisibilityMPH,Wind Direction,Wind SpeedMPH,Gust SpeedMPH,PrecipitationIn,Events,Conditions,WindDirDegrees,DateUTC
12:53 AM,42.1,37.0,82,30.28,10.0,NE,3.5,-,N/A,,Mostly Cloudy,50,2013-03-15 04:53:00
1:53 AM,42.1,36.0,79,30.26,10.0,Calm,Calm,-,N/A,,Overcast,0,2013-03-15 05:53:00
2:53 AM,39.2,37.4,93,30.24,10.0,Calm,Calm,-,N/A,,Partly Cloudy,0,2013-03-15 06:53:00
3:53 AM,37.9,37.0,97,30.23,10.0,Calm,Calm,-,N/A,,Clear,0,2013-03-15 07:53:00
4:24 AM,37.4,37.4,100,30.22,1.8,Calm,Calm,-,N/A,,Clear,0,2013-03-15 08:24:00
4:33 AM,35.6,35.6,100,30.21,3.0,Calm,Calm,-,N/A,,Clear,0,2013-03-15 08:33:00
4:53 AM,36.0,36.0,100,30.22,7.0,Calm,Calm,-,N/A,,Clear,0,2013-03-15 08:53:00
5:53 AM,36.0,35.1,97,30.21,6.0,Calm,Calm,-,N/A,,Scattered Clouds,0,2013-03-15 09:53:00
6:53 AM,36.0,35.1,97,30.21,6.0,Calm,Calm,-,N/A,Fog,Patches of Fog,0,2013-03-15 10:53:00
7:53 AM,35.1,34.0,96,30.20,6.0,Calm,Calm,-,N/A,Fog,Patches of Fog,0,2013-03-15 11:53:00
8:53 AM,36.0,36.0,100,30.19,10.0,Calm,Calm,-,N/A,,Clear,0,2013-03-15 12:53:00
9:53 AM,41.0,37.0,86,30.18,10.0,SSW,3.5,-,N/A,,Clear,210,2013-03-15 13:53:00
10:53 AM,46.9,37.9,71,30.17,10.0,SSW,3.5,-,N/A,,Clear,200,2013-03-15 14:53:00
11:53 AM,55.0,37.0,51,30.14,10.0,Variable,3.5,-,N/A,,Scattered Clouds,0,2013-03-15 15:53:00
12:53 PM,61.0,39.0,44,30.10,10.0,SSW,5.8,-,N/A,,Mostly Cloudy,200,2013-03-15 16:53:00
1:53 PM,66.0,39.9,38,30.07,10.0,South,6.9,-,0.01,,Mostly Cloudy,180,2013-03-15 17:53:00
2:53 PM,71.1,42.1,35,30.02,10.0,Variable,4.6,-,N/A,,Mostly Cloudy,0,2013-03-15 18:53:00
3:53 PM,72.0,41.0,33,30.00,10.0,SW,13.8,23.0,N/A,,Mostly Cloudy,220,2013-03-15 19:53:00
4:53 PM,73.0,42.1,33,29.97,10.0,SW,11.5,23.0,N/A,,Mostly Cloudy,230,2013-03-15 20:53:00
5:53 PM,75.0,42.1,31,29.95,10.0,WSW,10.4,18.4,N/A,,Mostly Cloudy,240,2013-03-15 21:53:00
6:53 PM,73.0,43.0,34,29.95,10.0,SW,13.8,23.0,N/A,,Mostly Cloudy,220,2013-03-15 22:53:00
7:53 PM,68.0,44.1,42,29.95,10.0,SSW,9.2,-,N/A,,Mostly Cloudy,200,2013-03-15 23:53:00
8:53 PM,64.9,45.0,48,29.96,10.0,South,5.8,-,N/A,,Mostly Cloudy,190,2013-03-16 00:53:00
9:53 PM,66.0,43.0,43,29.95,10.0,South,8.1,-,N/A,,Mostly Cloudy,190,2013-03-16 01:53:00
10:53 PM,64.0,43.0,46,29.95,10.0,SSW,9.2,-,N/A,,Scattered Clouds,210,2013-03-16 02:53:00
11:53 PM,64.9,43.0,45,29.95,10.0,SSW,8.1,-,N/A,,Scattered Clouds,210,2013-03-16 03:53:00